Weather History for KVSH - August, 2013

Change the Weather History Date:

Thursday, August 22, 2013

  Actual Average (KMAI) Record (KMAI)
Temperature  
Mean Temperature 84 °F 81 °F  
Max Temperature 89 °F 91 °F 100 °F (2011)
Min Temperature 78 °F 72 °F 64 °F (1997)
Degree Days  
Heating Degree Days 0    
Month to date heating degree days  
Since 1 June heating degree days  
Since 1 July heating degree days  
Cooling Degree Days 18    
Month to date cooling degree days  
Year to date cooling degree days  
Since 1 June cooling degree days  
Growing Degree Days 34 (Base 50)    
Moisture  
Dew Point 71 °F    
Average Humidity 67    
Maximum Humidity 83    
Minimum Humidity 52    
Precipitation  
Precipitation 0.00 in 0.15 in 0.38 in (2002)
Month to date precipitation 4.21  
Year to date precipitation 37.11  
Sea Level Pressure  
Sea Level Pressure 30.04 in    
Wind  
Wind Speed 5 mph (ENE)    
Max Wind Speed 12 mph    
Max Gust Speed 16 mph    
Visibility 10 miles    
Events      
T = Trace of Precipitation, MM = Missing Value Source: NWS Daily Summary

Daily Weather History Graph

Daily Weather History Graph

Search for Another Location

Airport or City:

Trip Planner

Search our weather history database for the weather conditions in past years. The results will help you decide how hot, cold, wet, or windy it might be!

Date:

Astronomy

Aug. 22, 2013 Rise Set
Actual Time 6:13 AM CDT 7:16 PM CDT
Civil Twilight 5:48 AM CDT 7:41 PM CDT
Nautical Twilight 5:18 AM CDT 8:11 PM CDT
Astronomical Twilight 4:47 AM CDT 8:41 PM CDT
Moon 8:14 PM CDT (8/22) 7:49 AM CDT (8/22)
Length of Visible Light 13h 53m
Length of Day
13h 03m
Waning Gibbous, 96% of the Moon is Illuminated
Aug 22
Waning Gibbous
Aug 28
Last Quarter
Sep 5
New
Sep 12
First Quarter
Sep 19
Full

Hourly Weather History & Observations

Time (CDT) Temp. Heat Index Dew Point Humidity Pressure Visibility Wind Dir Wind Speed Gust Speed Precip Events Conditions
12:15 AM 80.6 °F 85.4 °F 73.4 °F 79% 30.09 in 10.0 mi East 4.6 mph - N/A   Clear
12:35 AM 80.6 °F 85.4 °F 73.4 °F 79% 30.08 in 10.0 mi East 4.6 mph - N/A   Clear
12:55 AM 80.6 °F 85.4 °F 73.4 °F 79% 30.08 in 10.0 mi East 4.6 mph - N/A   Clear
1:15 AM 80.6 °F 85.4 °F 73.4 °F 79% 30.09 in 10.0 mi East 4.6 mph - N/A   Clear
1:35 AM 80.6 °F 85.4 °F 73.4 °F 79% 30.08 in 10.0 mi Calm Calm - N/A   Clear
1:55 AM 80.6 °F 85.4 °F 73.4 °F 79% 30.07 in 10.0 mi East 4.6 mph - N/A   Clear
2:15 AM 80.6 °F 85.4 °F 73.4 °F 79% 30.07 in 10.0 mi NE 3.5 mph - N/A   Partly Cloudy
2:35 AM 80.6 °F 85.4 °F 73.4 °F 79% 30.07 in 10.0 mi ENE 3.5 mph - N/A   Partly Cloudy
2:55 AM 80.6 °F 85.4 °F 73.4 °F 79% 30.08 in 10.0 mi SSE 5.8 mph - N/A   Scattered Clouds
3:15 AM 78.8 °F - 68.0 °F 69% 30.07 in 10.0 mi SSE 4.6 mph - N/A   Mostly Cloudy
3:35 AM 78.8 °F - 68.0 °F 69% 30.06 in 10.0 mi Calm Calm - N/A   Partly Cloudy
3:55 AM 78.8 °F - 68.0 °F 69% 30.06 in 10.0 mi Calm Calm - N/A   Partly Cloudy
4:15 AM 78.8 °F - 68.0 °F 69% 30.05 in 10.0 mi Calm Calm - N/A   Scattered Clouds
4:35 AM 78.8 °F - 68.0 °F 69% 30.05 in 10.0 mi Calm Calm - N/A   Partly Cloudy
4:55 AM 78.8 °F - 69.8 °F 74% 30.05 in 10.0 mi Calm Calm - N/A   Clear
5:15 AM 78.8 °F - 69.8 °F 74% 30.05 in 10.0 mi North 3.5 mph - N/A   Clear
5:35 AM 78.8 °F - 69.8 °F 74% 30.05 in 10.0 mi NNE 4.6 mph - N/A   Clear
5:55 AM 78.8 °F - 71.6 °F 78% 30.06 in 10.0 mi NE 5.8 mph - N/A   Clear
6:15 AM 78.8 °F - 71.6 °F 78% 30.06 in 10.0 mi NE 6.9 mph - N/A   Clear
6:35 AM 78.8 °F - 71.6 °F 78% 30.06 in 10.0 mi NE 6.9 mph - N/A   Clear
6:55 AM 78.8 °F - 71.6 °F 78% 30.06 in 10.0 mi NE 4.6 mph - N/A   Clear
7:15 AM 78.8 °F - 71.6 °F 78% 30.07 in 10.0 mi NE 4.6 mph - N/A   Clear
7:35 AM 78.8 °F - 73.4 °F 83% 30.07 in 10.0 mi NE 5.8 mph - N/A   Clear
7:55 AM 80.6 °F 85.4 °F 73.4 °F 79% 30.08 in 10.0 mi ENE 5.8 mph - N/A   Clear
8:15 AM 80.6 °F 85.4 °F 73.4 °F 79% 30.08 in 10.0 mi NE 4.6 mph - N/A   Clear
8:35 AM 80.6 °F 85.4 °F 73.4 °F 79% 30.08 in 10.0 mi NE 8.1 mph - N/A   Partly Cloudy
8:55 AM 82.4 °F 88.2 °F 73.4 °F 74% 30.09 in 10.0 mi ENE 5.8 mph - N/A   Scattered Clouds
9:15 AM 82.4 °F 88.2 °F 73.4 °F 74% 30.09 in 10.0 mi ENE 4.6 mph - N/A   Mostly Cloudy
9:35 AM 84.2 °F 90.9 °F 73.4 °F 70% 30.09 in 10.0 mi ENE 4.6 mph - N/A   Scattered Clouds
9:55 AM 84.2 °F 90.9 °F 73.4 °F 70% 30.09 in 10.0 mi ENE 4.6 mph - N/A   Partly Cloudy
10:15 AM 84.2 °F 90.9 °F 73.4 °F 70% 30.10 in 10.0 mi East 5.8 mph - N/A   Partly Cloudy
10:35 AM 84.2 °F 89.6 °F 71.6 °F 66% 30.10 in 10.0 mi NE 11.5 mph - N/A   Clear
10:55 AM 84.2 °F 89.6 °F 71.6 °F 66% 30.10 in 10.0 mi ENE 5.8 mph - N/A   Clear
11:15 AM 87.8 °F 93.8 °F 71.6 °F 58% 30.10 in 10.0 mi East 5.8 mph - N/A   Clear
11:35 AM 87.8 °F 93.8 °F 71.6 °F 58% 30.09 in 10.0 mi ENE 8.1 mph - N/A   Partly Cloudy
11:55 AM 87.8 °F 95.6 °F 73.4 °F 62% 30.09 in 10.0 mi East 6.9 mph - N/A   Scattered Clouds
12:15 PM 87.8 °F 93.8 °F 71.6 °F 58% 30.07 in 10.0 mi ENE 5.8 mph - N/A   Partly Cloudy
12:35 PM 87.8 °F 93.8 °F 71.6 °F 58% 30.07 in 10.0 mi ENE 6.9 mph - N/A   Clear
12:55 PM 87.8 °F 93.8 °F 71.6 °F 58% 30.07 in 10.0 mi NE 6.9 mph - N/A   Clear
1:15 PM 87.8 °F 93.8 °F 71.6 °F 58% 30.06 in 10.0 mi NE 9.2 mph 16.1 mph N/A   Partly Cloudy
1:35 PM 89.6 °F 94.7 °F 69.8 °F 52% 30.05 in 10.0 mi ENE 8.1 mph - N/A   Partly Cloudy
1:55 PM 89.6 °F 94.7 °F 69.8 °F 52% 30.04 in 10.0 mi NE 3.5 mph - N/A   Partly Cloudy
2:15 PM 89.6 °F 94.7 °F 69.8 °F 52% 30.03 in 10.0 mi ENE 6.9 mph - N/A   Clear
2:35 PM 89.6 °F 94.7 °F 69.8 °F 52% 30.03 in 10.0 mi ENE 9.2 mph - N/A   Clear
2:55 PM 89.6 °F 94.7 °F 69.8 °F 52% 30.02 in 10.0 mi East 9.2 mph - N/A   Clear
3:15 PM 89.6 °F 96.2 °F 71.6 °F 55% 30.02 in 10.0 mi East 5.8 mph - N/A   Partly Cloudy
3:35 PM 89.6 °F 96.2 °F 71.6 °F 55% 30.01 in 10.0 mi ENE 6.9 mph - N/A   Partly Cloudy
3:55 PM 89.6 °F 96.2 °F 71.6 °F 55% 30.00 in 10.0 mi SSE 6.9 mph - N/A   Partly Cloudy
4:15 PM 89.6 °F 96.2 °F 71.6 °F 55% 30.00 in 10.0 mi ENE 3.5 mph - N/A   Partly Cloudy
4:35 PM 89.6 °F 96.2 °F 71.6 °F 55% 29.99 in 10.0 mi ENE 4.6 mph - N/A   Partly Cloudy
4:55 PM 89.6 °F 96.2 °F 71.6 °F 55% 29.99 in 10.0 mi East 5.8 mph - N/A   Partly Cloudy
5:15 PM 89.6 °F 96.2 °F 71.6 °F 55% 29.98 in 10.0 mi SSE 6.9 mph - N/A   Scattered Clouds
5:35 PM 87.8 °F 93.8 °F 71.6 °F 58% 29.98 in 10.0 mi ENE 6.9 mph - N/A   Partly Cloudy
5:55 PM 89.6 °F 94.7 °F 69.8 °F 52% 29.98 in 10.0 mi Calm Calm - N/A   Clear
6:15 PM 89.6 °F 94.7 °F 69.8 °F 52% 29.98 in 10.0 mi SSE 5.8 mph - N/A   Clear
6:35 PM 87.8 °F 92.6 °F 69.8 °F 55% 29.98 in 10.0 mi SE 6.9 mph - N/A   Clear
6:55 PM 87.8 °F 92.6 °F 69.8 °F 55% 29.97 in 10.0 mi SE 3.5 mph - N/A   Clear
7:15 PM 86.0 °F 90.4 °F 69.8 °F 58% 29.98 in 10.0 mi East 4.6 mph - N/A   Clear
7:35 PM 86.0 °F 91.8 °F 71.6 °F 62% 29.98 in 10.0 mi SSE 4.6 mph - N/A   Clear
7:55 PM 84.2 °F 89.6 °F 71.6 °F 66% 29.98 in 10.0 mi East 6.9 mph - N/A   Clear
8:15 PM 84.2 °F 89.6 °F 71.6 °F 66% 29.99 in 10.0 mi Calm Calm - N/A   Clear
8:35 PM 84.2 °F 89.6 °F 71.6 °F 66% 30.00 in 10.0 mi SE 3.5 mph - N/A   Clear
8:55 PM 84.2 °F 89.6 °F 71.6 °F 66% 30.00 in 10.0 mi ESE 3.5 mph - N/A   Clear
9:15 PM 84.2 °F 89.6 °F 71.6 °F 66% 30.01 in 10.0 mi East 3.5 mph - N/A   Clear
9:35 PM 82.4 °F 86.3 °F 69.8 °F 66% 30.01 in 10.0 mi SE 4.6 mph - N/A   Clear
9:55 PM 82.4 °F 87.2 °F 71.6 °F 70% 30.01 in 10.0 mi SSE 5.8 mph - N/A   Clear
10:15 PM 82.4 °F 87.2 °F 71.6 °F 70% 30.01 in 10.0 mi SE 5.8 mph - N/A   Clear
10:35 PM 82.4 °F 87.2 °F 71.6 °F 70% 30.01 in 10.0 mi ENE 4.6 mph - N/A   Clear
10:55 PM 82.4 °F 87.2 °F 71.6 °F 70% 30.02 in 10.0 mi East 3.5 mph - N/A   Clear
11:15 PM 82.4 °F 87.2 °F 71.6 °F 70% 30.02 in 10.0 mi East 4.6 mph - N/A   Clear
11:35 PM 82.4 °F 87.2 °F 71.6 °F 70% 30.01 in 10.0 mi East 3.5 mph - N/A   Clear
11:55 PM 82.4 °F 87.2 °F 71.6 °F 70% 30.01 in 10.0 mi Calm Calm - N/A   Clear